Regional Weather Roundup
Issued by NWS Sterling, VA

Home | Current Version | Previous Version | Text Only | Print | Product List | Glossary On
Versions: 1 2 3 4 5 6 7 8 9 10 11 12 13 14 15 16 17 18 19 20 21 22 23 24 25 26 27 28 29 30 31 32 33 34 35 36 37 38 39 40 41 42 43 44 45 46 47 48 49
000
ASUS41 KLWX 252210
RWRLWX

REGIONAL WEATHER ROUNDUP
NATIONAL WEATHER SERVICE BALTIMORE MD/WASHINGTON DC
600 PM EDT SAT APR 25 2015

Note: "FAIR" indicates few or no clouds below 12,000 feet
with no significant weather and/or obstructions to visibility.
 TC=TEMPERATURE CELSIUS

 * =Non NWS site. Station does not report precipitation (e.g. rain,
    snow, etc.), thunder, or fog.

DCZ001-MDZ009-015-VAZ040>042-051-053>054-252300-
WASHINGTON METRO

CITY           SKY/WX    TMP DP  RH WIND       PRES   REMARKS
WASHINGTON NAT LGT RAIN  49  37  63 SW9       29.79F
DULLES         LGT RAIN  46  33  60 SW8       29.78S
ANDREWS AFB    LGT RAIN  47  37  68 SW7       29.77S
FT BELVOIR     LGT RAIN  46  39  75 SW5       29.80S
QUANTICO       LGT RAIN  46  40  79 W6        29.82S
COLLEGE PARK*  CLOUDY    50  34  53 S5        29.78S
LEESBURG*      LGT RAIN  48  32  53 S10       29.79R
MANASSAS*      CLOUDY    45  39  81 SW5       29.80F
GAITHERSBURG*  CLOUDY    48  25  40 SW3       29.80S

$$

MDZ006>007-011-014-252300-
BALTIMORE METRO

CITY           SKY/WX    TMP DP  RH WIND       PRES   REMARKS
BWI AIRPORT    CLOUDY    51  29  42 SW5       29.76F
MD SCIENCE CTR   N/A     52  35  52 MISG      29.77F
MARTIN STATE   CLOUDY    52  39  62 S9        29.78F
ANNAPOLIS      CLOUDY    50  36  58 S8        29.77F
FORT MEADE*    CLOUDY    50  30  46 S5        29.79F

$$

MDZ012-015-019>023-252300-
MARYLAND EASTERN SHORE

CITY           SKY/WX    TMP DP  RH WIND       PRES   REMARKS
OCEAN CITY     CLOUDY    47  38  71 VRB5      29.79F
SALISBURY      CLOUDY    49  37  63 SW7       29.79F
BAY BRIDGE AP*   N/A    N/A N/A N/A S8        29.79S
CAMBRIDGE*     CLOUDY    52  37  58 SW5       29.79S
EASTON*        LGT RAIN  52  36  54 SW8       29.82F

$$

MDZ017>025-252300-
SOUTHERN MARYLAND

CITY           SKY/WX    TMP DP  RH WIND       PRES   REMARKS
PATUXENT RIVER LGT RAIN  46  43  89 SW5       29.79F FOG
ST INIGOES     LGT RAIN  46  42  86 SE3       29.79F
LEONARDTOWN*   CLOUDY    45  39  81 CALM      29.81S

$$

MDZ003>005-252300-
NORTH CENTRAL MARYLAND

CITY           SKY/WX    TMP DP  RH WIND       PRES   REMARKS
FREDERICK*     NOT AVBL
HAGERSTOWN APT CLOUDY    52  27  38 SW6       29.74S
WESTMINSTER*   CLOUDY    52  23  32 S5        29.75S

$$

MDZ501>502-252300-
WESTERN MARYLAND

CITY           SKY/WX    TMP DP  RH WIND       PRES   REMARKS
OAKLAND*       CLOUDY    36  36 100 SE8       29.69R
CUMBERLAND*    CLOUDY    48  32  53 SW5       29.78R

$$

VAZ025>031-252300-
SHENANDOAH VALLEY

CITY           SKY/WX    TMP DP  RH WIND       PRES   REMARKS
WINCHESTER*    DRIZZLE   46  30  53 S7        29.77R
FRONT ROYAL*   CLOUDY    43  37  81 S6        29.76S
LURAY*         RAIN      43  41  93 SW3       29.77F
NEW MARKET*    CLOUDY    43  40  91 SW5       29.75F
STAUNTON*      RAIN      42  39  89 SW5       29.78S
WAYNESBORO*    CLOUDY    38  37  97 S8        29.75F

$$

WVZ021-048>050-054>055-252300-
EASTERN WEST VIRGINIA PANHANDLE

CITY           SKY/WX    TMP DP  RH WIND       PRES   REMARKS
MARTINSBURG    CLOUDY    49  28  44 S6        29.76S
PETERSBURG*    RAIN      43  35  75 CALM      29.74F

$$

VAZ036>039-050-252300-
CENTRAL FOOTHILLS

CITY           SKY/WX    TMP DP  RH WIND       PRES   REMARKS
CHARLOTTESVILL LGT RAIN  42  37  82 CALM      29.78F
CULPEPER*      RAIN      45  41  87 CALM      29.81S
ORANGE*        RAIN      45  41  87 SW3       29.81S
GORDONSVILLE*  CLOUDY    42  39  88 SW3       29.79F
WARRENTON*     RAIN      43  42  95 S3        29.80S

$$

VAZ055>057-252300-
NORTH AND CENTRAL PIEDMONT

CITY           SKY/WX    TMP DP  RH WIND       PRES   REMARKS
FREDERICKSBRG* LGT RAIN  46  44  93 CALM      29.80S
STAFFORD*      RAIN      43  32  65 CALM      29.85S

$$

NCZ024-NYZ072-PAZ021-071-VAZ022-071-252300-
OTHER REGIONAL OBSERVATIONS

CITY           SKY/WX    TMP DP  RH WIND       PRES   REMARKS
NEW YORK CITY  PTSUNNY   60  20  21 VRB5      29.72S
PHILADELPHIA   PTSUNNY   57  24  28 SW13      29.74F
PITTSBURGH     CLOUDY    53  22  29 E6        29.70S
ROANOKE        CLOUDY    42  40  92 SE7       29.75F FOG
RICHMOND       LGT RAIN  46  43  87 NE6       29.78F FOG
RALEIGH        LGT RAIN  53  52  96 N5        29.72S VSB 1

$$

ANZ530>537-252300-
MARINE OBSERVATIONS

STATION/POSITION TIME  TEMP    WIND        PRES
                       AIR SEA DIR/SP/G
                 (UTC) (F)     (DEG/KT/KT) (MB)
THOMAS PT LIGHT  2200   49 52  170/ 11/ 12 1008.8F
BALT KEY BRIDGE  2100   49     120/  5/  7 1008.2F
COVE POINT       2100   49     310/  4/  6 1009.6F
LEWISETTA        2100   47 56              1008.8F
SOLOMONS ISLAND  2100      55                N/A
PINEY POINT      2100          200/  6/  7   N/A

$$



USA.gov is the U.S. government's official web portal to all federal, state and local government web resources and services.